Home   Weather   Preveza   Past weeks

Flag for Greece Past Weather in Preveza, Greece — Yesterday and Last 2 Weeks

Now
50 °F

Clear.


Feels Like: 50 °F
Forecast: 48 / 60 °F
Wind: No wind

Location: Aktion Airport

Current Time: Dec 10, 2016 at 6:43:00 pm

Latest Report: Dec 10, 2016 at 5:50 pm


Visibility: 10 mi

Pressure: 30.24 "Hg

Humidity: 82%

Dew Point: 45 °F

Location of PrevezaLocation

Past Weather in Preveza — Graph

°F

Preveza Temperature Yesterday

Maximum temperature yesterday: 59 °F (at 1:50 pm)
Minimum temperature yesterday: 46 °F (at 12:50 am)
Average temperature yesterday: 51 °F

High & Low Weather Summary for the Past Weeks

 TemperatureHumidityPressure
High63 °F (Nov 27, 1:50 pm)94% (Nov 26, 12:20 pm)30.60 "Hg (Nov 26, 12:20 pm)
Low37 °F (Dec 1, 6:50 am)33% (Dec 1, 1:20 pm)29.74 "Hg (Nov 28, 12:50 pm)
Average53 °F73%30.16 "Hg
* Reported Nov 25 5:20 pm — Dec 10 5:20 pm, Preveza, Weather by CustomWeather, © 2016

Note: Actual official high and low records may vary slightly from our data, if they occured in-between our weather recording intervals... More about our weather records

Advertising

Preveza Weather History for the Previous 24 Hours

Scroll right to see more
 ConditionsComfort  
Time TempWeatherWind HumidityBarometerVisibility
5:20 pm
Sat, Dec 10
54 °FClear.No wind72%30.24 "Hg10 mi
4:50 pm55 °FSunny.No wind72%30.24 "Hg10 mi
4:20 pm57 °FSunny.No wind67%30.24 "Hg10 mi
3:50 pm57 °FSunny.6 mph67%30.21 "Hg10 mi
3:20 pm59 °FSunny.No wind59%30.24 "Hg10 mi
2:50 pm59 °FSunny.5 mph59%30.21 "Hg10 mi
2:20 pm61 °FSunny.No wind59%30.21 "Hg10 mi
1:50 pm61 °FSunny.No wind52%30.24 "Hg10 mi
1:20 pm59 °FSunny.No wind48%30.24 "Hg10 mi
12:50 pm57 °FSunny.No wind59%30.24 "Hg10 mi
12:20 pm55 °FSunny.6 mph67%30.27 "Hg10 mi
11:50 am55 °FSunny.6 mph63%30.27 "Hg10 mi
11:20 am54 °FSunny.7 mph72%30.27 "Hg10 mi
10:50 am52 °FSunny.7 mph77%30.27 "Hg10 mi
10:20 am52 °FSunny.8 mph77%30.27 "Hg10 mi
9:50 am50 °FSunny.9 mph82%30.27 "Hg10 mi
9:20 am50 °FSunny.7 mph82%30.27 "Hg10 mi
8:50 am48 °FSunny.8 mph82%30.27 "Hg10 mi
8:20 am48 °FSunny.8 mph82%30.27 "Hg10 mi
7:50 am46 °FSunny.7 mph87%30.27 "Hg10 mi
7:20 am46 °FPassing clouds.8 mph87%30.27 "HgN/A
6:50 am46 °FPassing clouds.7 mph87%30.24 "HgN/A
6:20 am46 °FPassing clouds.7 mph87%30.24 "HgN/A
5:50 am46 °FPassing clouds.6 mph87%30.27 "HgN/A
4:50 am48 °FPassing clouds.7 mph82%30.27 "HgN/A
3:50 am48 °FPassing clouds.8 mph82%30.30 "HgN/A
2:50 am48 °FPassing clouds.9 mph82%30.30 "HgN/A
1:50 am48 °FPassing clouds.7 mph82%30.30 "HgN/A
12:50 am48 °FPassing clouds.8 mph82%30.33 "HgN/A
11:50 pm
Fri, Dec 9
48 °FPassing clouds.7 mph82%30.33 "HgN/A
10:50 pm50 °FPassing clouds.7 mph82%30.33 "HgN/A
9:50 pm48 °FPassing clouds.6 mph87%30.33 "HgN/A
8:50 pm46 °FPassing clouds.6 mph93%30.33 "HgN/A
7:50 pm46 °FPassing clouds.No wind82%30.33 "HgN/A
7:20 pm48 °FPassing clouds.No wind87%30.33 "HgN/A
6:50 pm48 °FPassing clouds.No wind82%30.33 "HgN/A
6:20 pm50 °FPassing clouds.No wind82%30.33 "HgN/A
Weather by CustomWeather, © 2016

See weather overviewHow to use our weather pages